Regional Weather Roundup
Issued by NWS

Home | Current Version | Previous Version | Text Only | Print | Product List | Glossary Off
Versions: 1 2 3 4 5 6 7 8 9 10 11 12 13 14 15 16 17 18 19 20 21 22 23 24 25 26 27 28 29 30 31 32 33 34 35 36 37 38 39 40 41 42 43 44 45 46 47 48 49 50

000
ASUS45 KABQ 241010
RWRNM
NEW MEXICO REGIONAL WEATHER ROUNDUP
NATIONAL WEATHER SERVICE ALBUQUERQUE NM
400 AM MDT TUE MAY 24 2016

NOTE: "FAIR" MEANS FEW OR NO CLOUDS BELOW 12,000 FEET AGL WITH NO
       SIGNIFICANT WEATHER OR OBSTRUCTIONS TO VISION.

      THIS PRODUCT IS RELEASED AS TWO VERSIONS.  ONE VERSION NEAR
      THE TOP OF THE HOUR CONTAINING PRELIMINARY DATA FROM ALBUQUERQUE
      AND OTHER STATIONS.  A FINAL VERSION WITH ADDITIONAL DATA IS
      ISSUED ABOUT 10 MINUTES AFTER THE HOUR.

NMZ501-503-504-510>518-241100-
NORTHWEST PLATEAU/NORTHCENTRAL MOUNTAINS

CITY           SKY/WX    TMP DP  RH WIND       PRES   REMARKS
FARMINGTON     FAIR      42  19  39 NE7       29.94R
LOS ALAMOS     FAIR      55  17  22 E5        30.05R
SANTA FE       FAIR      42  22  44 NE5       29.99S
TAOS           FAIR      37  18  44 CALM      30.06R
ANGEL FIRE     FAIR      27  23  83 SE3       30.12S

$$
NMZ402-403-502-505>509-241100-
WESTCENTRAL MOUNTAINS/SOUTHWEST MOUNTAINS

CITY           SKY/WX    TMP DP  RH WIND       PRES   REMARKS
GALLUP         FAIR      40  20  44 NE3       30.02R
GRANTS         FAIR      37  20  50 NW6       30.04S WCI  32
SILVER CITY      N/A     48  21  34 NW5       30.02R

$$
NMZ407-409-411-412-241100-
SOUTHERN DESERTS

CITY           SKY/WX    TMP DP  RH WIND       PRES   REMARKS
LORDSBURG      FAIR      59  23  25 SW9       29.95S
DEMING         FAIR      54  18  24 S6        29.96S
LAS CRUCES     FAIR      64  15  15 W14       29.96R
HOLLOMAN AFB   FAIR      61  19  19 SE7       29.91R
ALAMOGORDO     FAIR      66  16  14 S9        29.93S
T OR C         FAIR      61  22  22 W3        29.93S

$$
NMZ519>523-241100-
CENTRAL VALLEYS/CENTRAL HIGHLANDS

CITY           SKY/WX    TMP DP  RH WIND       PRES   REMARKS
ALBUQUERQUE    FAIR      58  18  21 CALM      29.96R
DOUBLE EAGLE   FAIR      46  22  38 NW3       29.98S
MORIARTY ARPT  FAIR      38  20  47 CALM      30.01S
CLINES CORNERS FAIR      48  18  30 W9        30.02R
BELEN          FAIR      53  20  27 NW6       29.95S
SOCORRO        FAIR      58  20  23 CALM      29.94R

$$
NMZ524>526-539-540-241100-
SOUTHCENTRAL MOUNTAINS

CITY           SKY/WX    TMP DP  RH WIND       PRES   REMARKS
RUIDOSO          N/A     57  14  18 SW16      30.06S

$$
NMZ527>531-241100-
NORTHEAST HIGHLANDS/NORTHEAST PLAINS

CITY           SKY/WX    TMP DP  RH WIND       PRES   REMARKS
LAS VEGAS      FAIR      51  22  31 N6        30.00S
RATON          FAIR      42  27  55 NE8       29.95R
CLAYTON        FAIR      54  46  74 SW9       29.86F

$$
NMZ532>537-241100-
EASTCENTRAL PLAINS

CITY           SKY/WX    TMP DP  RH WIND       PRES   REMARKS
TUCUMCARI      FAIR      58  30  34 SW9       29.82R
CANNON AFB     FAIR      58  39  49 W3        29.90R
CLOVIS AIRPORT FAIR      57  48  72 S5        29.90S

$$
NMZ028-029-538-241100-
SOUTHEAST PLAINS

CITY           SKY/WX    TMP DP  RH WIND       PRES   REMARKS
ROSWELL        FAIR      59  27  29 SW6       29.86S
ARTESIA        FAIR      59  23  25 SW8       29.87S
CARLSBAD       FAIR      61  51  70 CALM      29.86R
HOBBS          FAIR      66  66 100 S9        29.91S


$$




USA.gov is the U.S. government's official web portal to all federal, state and local government web resources and services.